Mixed with some thunderstorm clouds possible
Mixed with some thunderstorm clouds possible
Mixed with some thunderstorm clouds possible
Clear with few low clouds
Clear with few low clouds
Clear with few low clouds
Clear with few low clouds
Clear with few low clouds
Clear, cloudless sky
(°F)
84°
84°
83°
83°
82°
82°
79°
79°
76°
76°
73°
73°
71°
71°
69°
69°
67°
67°
(°F)
87°
84°
82°
80°
78°
75°
73°
71°
69°
NW
NNW
NNW
NNE
NNE
NNE
NE
ENE
ENE
(mph)
2-7
3-6
3-9
4-13
4-16
3-14
3-10
3-7
3-6
(in)
0
0
0
0
0
0
0
0
0
(%)
0
0
0
0
0
0
0
0
0

Sun elevation

/ 39.1°
sun-icon
UV 5
05:02
20:42
Full moon (185°)
21:21
04:17

METAR for Hvozdnica (LZZI)

Time Conditions Temperature/
Dewpoint
Wind Visibility Weather Clouds Pressure Change Raw
VFR 84.2°F / 57.2°F 200º variable 130º to 240º 3kt 9700m - Few Clouds 4800ft 1009 - LZZI 211400Z 20003KT 130V240 9999 FEW048 29/14 Q1009
VFR 86°F / 57.2°F 3kt 9700m - Few Clouds 4800ft 1009 - LZZI 211330Z VRB03KT 9999 FEW048 30/14 Q1009
VFR 84.2°F / 55.4°F 20º variable 330º to 070º 3kt 9700m - Few Clouds 4500ft 1009 - LZZI 211300Z 02003KT 330V070 9999 FEW045 29/13 Q1009
VFR 84.2°F / 59°F 90º variable 020º to 150º 3kt 9700m - Scattered Clouds 4500ft 1009 - LZZI 211230Z 09003KT 020V150 9999 SCT045 29/15 Q1009
VFR 84.2°F / 60.8°F 2kt 9700m - Scattered Clouds 4400ft 1009 - LZZI 211200Z VRB02KT 9999 SCT044 29/16 Q1009
VFR 82.4°F / 57.2°F 170º variable 120º to 220º 4kt 9700m - Scattered Clouds 4300ft 1009 - LZZI 211130Z 17004KT 120V220 9999 SCT043 28/14 Q1009
VFR 82.4°F / 59°F 2kt 9700m - Scattered Clouds 4200ft 1009 - LZZI 211100Z VRB02KT 9999 SCT042 28/15 Q1009
VFR 80.6°F / 59°F 4kt 9700m - Few Clouds 4000ft 1010 - LZZI 211030Z VRB04KT 9999 FEW040 27/15 Q1010
VFR 80.6°F / 59°F 90º variable 010º to 150º 5kt 9700m - Few Clouds 4000ft 1010 - LZZI 211000Z 09005KT 010V150 9999 FEW040 27/15 Q1010
VFR 80.6°F / 59°F 110º variable 060º to 200º 5kt 9700m - Few Clouds 3800ft 1010 - LZZI 210930Z 11005KT 060V200 9999 FEW038 27/15 Q1010
VFR 78.8°F / 60.8°F 130º variable 060º to 170º 4kt 9700m - Few Clouds 3200ft 1010 - LZZI 210900Z 13004KT 060V170 9999 FEW032 26/16 Q1010
VFR 77°F / 60.8°F 4kt 9700m - Few Clouds 3000ft 1010 - LZZI 210830Z VRB04KT 9999 FEW030 25/16 Q1010
VFR 77°F / 62.6°F 2kt 9700m - Few Clouds 2800ft 1010 - LZZI 210800Z VRB02KT 9999 FEW028 25/17 Q1010
VFR 73.4°F / 62.6°F 1kt 9700m - Clouds and Visibility OK 1010 - LZZI 210730Z VRB01KT CAVOK 23/17 Q1010
VFR 71.6°F / 62.6°F 2kt 9700m - Clouds and Visibility OK 1010 - LZZI 210700Z VRB02KT CAVOK 22/17 Q1010
VFR 69.8°F / 62.6°F 2kt 9700m - Clouds and Visibility OK 1010 - LZZI 210630Z VRB02KT CAVOK 21/17 Q1010
VFR 68°F / 60.8°F 2kt 9700m - Clouds and Visibility OK 1010 - LZZI 210600Z VRB02KT CAVOK 20/16 Q1010
VFR 68°F / 60.8°F 2kt 9700m - Clouds and Visibility OK 1010 - LZZI 210530Z VRB02KT CAVOK 20/16 Q1010
VFR 66.2°F / 62.6°F 1kt 9700m - Clouds and Visibility OK 1010 - LZZI 210500Z VRB01KT CAVOK 19/17 Q1010
VFR 64.4°F / 60.8°F 190º 1kt 9700m - Clouds and Visibility OK 1010 - LZZI 210430Z 19001KT CAVOK 18/16 Q1010
VFR 64.4°F / 62.6°F 2kt 9700m - Clouds and Visibility OK 1010 - LZZI 210400Z VRB02KT CAVOK 18/17 Q1010
VFR 64.4°F / 62.6°F 180º 1kt 9700m - Clouds and Visibility OK 1010 - LZZI 210330Z 18001KT CAVOK 18/17 Q1010
VFR 64.4°F / 62.6°F 1kt 9700m - Clouds and Visibility OK 1010 - LZZI 210300Z VRB01KT CAVOK 18/17 Q1010
VFR 64.4°F / 62.6°F 1kt 9700m - Clouds and Visibility OK 1010 - LZZI 210230Z VRB01KT CAVOK 18/17 Q1010

VFR

84.2°F / 57.2°F

[More]
Wind 200º variable 130º to 240º 3kt
Visibility 9700m
Weather -
Clouds Few Clouds 4800ft
Pressure 1009
Change -
Raw LZZI 211400Z 20003KT 130V240 9999 FEW048 29/14 Q1009

VFR

86°F / 57.2°F

[More]
Wind 3kt
Visibility 9700m
Weather -
Clouds Few Clouds 4800ft
Pressure 1009
Change -
Raw LZZI 211330Z VRB03KT 9999 FEW048 30/14 Q1009

VFR

84.2°F / 55.4°F

[More]
Wind 20º variable 330º to 070º 3kt
Visibility 9700m
Weather -
Clouds Few Clouds 4500ft
Pressure 1009
Change -
Raw LZZI 211300Z 02003KT 330V070 9999 FEW045 29/13 Q1009

VFR

84.2°F / 59°F

[More]
Wind 90º variable 020º to 150º 3kt
Visibility 9700m
Weather -
Clouds Scattered Clouds 4500ft
Pressure 1009
Change -
Raw LZZI 211230Z 09003KT 020V150 9999 SCT045 29/15 Q1009

VFR

84.2°F / 60.8°F

[More]
Wind 2kt
Visibility 9700m
Weather -
Clouds Scattered Clouds 4400ft
Pressure 1009
Change -
Raw LZZI 211200Z VRB02KT 9999 SCT044 29/16 Q1009

VFR

82.4°F / 57.2°F

[More]
Wind 170º variable 120º to 220º 4kt
Visibility 9700m
Weather -
Clouds Scattered Clouds 4300ft
Pressure 1009
Change -
Raw LZZI 211130Z 17004KT 120V220 9999 SCT043 28/14 Q1009

VFR

82.4°F / 59°F

[More]
Wind 2kt
Visibility 9700m
Weather -
Clouds Scattered Clouds 4200ft
Pressure 1009
Change -
Raw LZZI 211100Z VRB02KT 9999 SCT042 28/15 Q1009

VFR

80.6°F / 59°F

[More]
Wind 4kt
Visibility 9700m
Weather -
Clouds Few Clouds 4000ft
Pressure 1010
Change -
Raw LZZI 211030Z VRB04KT 9999 FEW040 27/15 Q1010

VFR

80.6°F / 59°F

[More]
Wind 90º variable 010º to 150º 5kt
Visibility 9700m
Weather -
Clouds Few Clouds 4000ft
Pressure 1010
Change -
Raw LZZI 211000Z 09005KT 010V150 9999 FEW040 27/15 Q1010

VFR

80.6°F / 59°F

[More]
Wind 110º variable 060º to 200º 5kt
Visibility 9700m
Weather -
Clouds Few Clouds 3800ft
Pressure 1010
Change -
Raw LZZI 210930Z 11005KT 060V200 9999 FEW038 27/15 Q1010

VFR

78.8°F / 60.8°F

[More]
Wind 130º variable 060º to 170º 4kt
Visibility 9700m
Weather -
Clouds Few Clouds 3200ft
Pressure 1010
Change -
Raw LZZI 210900Z 13004KT 060V170 9999 FEW032 26/16 Q1010

VFR

77°F / 60.8°F

[More]
Wind 4kt
Visibility 9700m
Weather -
Clouds Few Clouds 3000ft
Pressure 1010
Change -
Raw LZZI 210830Z VRB04KT 9999 FEW030 25/16 Q1010

VFR

77°F / 62.6°F

[More]
Wind 2kt
Visibility 9700m
Weather -
Clouds Few Clouds 2800ft
Pressure 1010
Change -
Raw LZZI 210800Z VRB02KT 9999 FEW028 25/17 Q1010

VFR

73.4°F / 62.6°F

[More]
Wind 1kt
Visibility 9700m
Weather -
Clouds Clouds and Visibility OK
Pressure 1010
Change -
Raw LZZI 210730Z VRB01KT CAVOK 23/17 Q1010

VFR

71.6°F / 62.6°F

[More]
Wind 2kt
Visibility 9700m
Weather -
Clouds Clouds and Visibility OK
Pressure 1010
Change -
Raw LZZI 210700Z VRB02KT CAVOK 22/17 Q1010

VFR

69.8°F / 62.6°F

[More]
Wind 2kt
Visibility 9700m
Weather -
Clouds Clouds and Visibility OK
Pressure 1010
Change -
Raw LZZI 210630Z VRB02KT CAVOK 21/17 Q1010

VFR

68°F / 60.8°F

[More]
Wind 2kt
Visibility 9700m
Weather -
Clouds Clouds and Visibility OK
Pressure 1010
Change -
Raw LZZI 210600Z VRB02KT CAVOK 20/16 Q1010

VFR

68°F / 60.8°F

[More]
Wind 2kt
Visibility 9700m
Weather -
Clouds Clouds and Visibility OK
Pressure 1010
Change -
Raw LZZI 210530Z VRB02KT CAVOK 20/16 Q1010

VFR

66.2°F / 62.6°F

[More]
Wind 1kt
Visibility 9700m
Weather -
Clouds Clouds and Visibility OK
Pressure 1010
Change -
Raw LZZI 210500Z VRB01KT CAVOK 19/17 Q1010

VFR

64.4°F / 60.8°F

[More]
Wind 190º 1kt
Visibility 9700m
Weather -
Clouds Clouds and Visibility OK
Pressure 1010
Change -
Raw LZZI 210430Z 19001KT CAVOK 18/16 Q1010

VFR

64.4°F / 62.6°F

[More]
Wind 2kt
Visibility 9700m
Weather -
Clouds Clouds and Visibility OK
Pressure 1010
Change -
Raw LZZI 210400Z VRB02KT CAVOK 18/17 Q1010

VFR

64.4°F / 62.6°F

[More]
Wind 180º 1kt
Visibility 9700m
Weather -
Clouds Clouds and Visibility OK
Pressure 1010
Change -
Raw LZZI 210330Z 18001KT CAVOK 18/17 Q1010

VFR

64.4°F / 62.6°F

[More]
Wind 1kt
Visibility 9700m
Weather -
Clouds Clouds and Visibility OK
Pressure 1010
Change -
Raw LZZI 210300Z VRB01KT CAVOK 18/17 Q1010

VFR

64.4°F / 62.6°F

[More]
Wind 1kt
Visibility 9700m
Weather -
Clouds Clouds and Visibility OK
Pressure 1010
Change -
Raw LZZI 210230Z VRB01KT CAVOK 18/17 Q1010

TAF for Hvozdnica (LZZI)

From till


From till Wind 2kt. Visibility 9700m. Few Clouds 4500ft.
Temporarly from till Wind 60º 7kt.

Raw: TAF LZZI 211115Z 2112/2121 VRB02KT 9999 FEW045 TEMPO 2112/2117 06007KT

Radar and precipitation nowcast for Hvozdnica

Drizzle
Light
Moderate
Heavy
Very Heavy
Hail

The location marker is placed on Hvozdnica. This animation shows the precipitation radar for the selected time range, as well as a 2h forecast. Orange crosses indicate lightning. Data provided by nowcast.de (available in USA, Europe, Australia). Drizzle or light snow fall might be invisible for the radar. Precipitation intensity is colour coded, ranging from turquoise to red.

Current satellite and rain images for Hvozdnica, Slovakia

The location marker is placed on Hvozdnica. [More]

The real-time satellite image combines visible light during daytime with infrared radiation during nighttime. At night, the image is not dark as infrared radiation can detect temperature differences. Unfortunately, low clouds and fog are difficult to distinguish from ground temperatures and thus can be almost invisible during the night. Meteosat satellite images for Europe are updated in real-time every 5 minutes. GOES-16/GOES-17 (North & South America) and Himawari (Asia) images update every 10 minutes.

Precipitation is estimated from radar and satellites. Precipitation estimates from satellites are less accurate at night than during daytime.

© 2024 meteoblue, NOAA Satellites GOES-16 and EUMETSAT. Lightning data provided by nowcast.

Back to top
×
Hey there,
seems like you are using an ad blocker.

Advertising is essential to maintain our free website with unique detail and accuracy.

Please whitelist www.meteoblue.com on your ad blocker or consider buying one of our products:

Already have a subscription?
Then please login.